Location: Los Ranchitos
(37.9930°N, 122.5425°W)
Time: 08:28:52
(UTC+00:00)

Cosmos 1844 Rocket - Pass Details

Date: 21 September 2020
Orbit: 823 x 846 km, 71.0° (Epoch: 29 October)

Event Time Altitude Azimuth Distance (km) Brightness Sun altitude
Rises 03:29:09 0° 197° (SSW) 3,341 5.9 -16.4°
Reaches altitude 10° 03:31:34 10° 196° (SSW) 2,413 5.1 -16.9°
Maximum altitude 03:37:06 79° 110° (ESE) 842 2.5 -17.9°
Drops below altitude 10° 03:42:40 10° 25° (NNE) 2,436 5.0 -19.0°
Sets 03:45:07 0° 24° (NNE) 3,376 5.8 -19.5°
